Location: Lane
(33.5226°N, 79.8788°W)
Time: 15:57:33
(UTC+00:00)

Transit 2A - Pass Details

Date: 02 October 2022
Orbit: 598 x 959 km, 66.7° (Epoch: 06 December)

Event Time Altitude Azimuth Distance (km) Brightness Sun altitude
Rises 14:56:40 0° 311° (NW) 3,064 8.7 41.4°
Reaches altitude 10° 14:59:43 10° 290° (WNW) 2,212 8.1 41.9°
Maximum altitude 15:02:46 16° 252° (WSW) 1,885 8.0 42.3°
Drops below altitude 10° 15:05:59 10° 215° (SW) 2,350 8.7 42.8°
Sets 15:09:24 0° 195° (SSW) 3,357 9.6 43.3°
